Regional Weather Roundup
Issued by NWS

Home | Current Version | Previous Version | Graphics & Text | Print | Product List | Glossary On
Versions: 1 2 3 4 5 6 7 8 9 10 11 12 13 14 15 16 17 18 19 20 21 22 23 24 25 26 27 28 29 30 31 32 33 34 35 36 37 38 39 40 41 42 43 44 45 46 47 48 49 50
000
ASUS43 KBIS 262102
RWRND

NORTH DAKOTA REGIONAL WEATHER ROUNDUP
NATIONAL WEATHER SERVICE BISMARCK ND
400 PM CDT TUE JUL 26 2016

NOTE: "FAIR" INDICATES FEW OR NO CLOUDS BELOW 12,000 FEET WITH NO
SIGNIFICANT WEATHER AND/OR OBSTRUCTIONS TO VISIBILITY.


NDZ001>003-009>011-017-262200-
NORTHWEST NORTH DAKOTA

CITY           SKY/WX    TMP DP  RH WIND       PRES   REMARKS
WILLISTON      CLOUDY    81  59  47 N14       30.08R
MINOT          PTSUNNY   82  63  52 N17       30.02F
MINOT AFB      CLOUDY    79  60  51 N16       30.02F
$$

NDZ018>021-031>035-040>046-262200-
SOUTHWEST NORTH DAKOTA

CITY           SKY/WX    TMP DP  RH WIND       PRES   REMARKS
BISMARCK       MOSUNNY   83  66  56 NE16      29.99R
DICKINSON      MOSUNNY   76  61  59 NE13      30.06R
GARRISON         N/A     75  66  73 NE7       30.02S
HETTINGER ARPT SUNNY     87  55  33 N15G21    30.04R
$$

NDZ004>008-012>016-024-026-027-054-262200-
NORTHEAST NORTH DAKOTA

CITY           SKY/WX    TMP DP  RH WIND       PRES   REMARKS
GRAND FORKS    CLOUDY    87  65  47 N8        29.95R
DEVILS LAKE    CLOUDY    81  64  56 VRB3      30.00F
$$

NDZ022-023-025-028>030-036>039-047>053-262200-
SOUTHEAST NORTH DAKOTA

CITY           SKY/WX    TMP DP  RH WIND       PRES   REMARKS
FARGO          CLOUDY    84  71  65 E6        29.94S
JAMESTOWN      CLOUDY    73  66  78 SW5       29.96F
$$




USA.gov is the U.S. government's official web portal to all federal, state and local government web resources and services.